KK4OHF Weather Reports


time (UTC)temp
F
wind
direction
speed
knots
gust
knots
rain 1hr
in
rain 24hr
in
rain mn
in
humidity
%
barometer
mb
20260903074505 74 173 0.0 0.0 0.00 0.00 0.00 89 1016.9
20260903073506 74 173 0.0 0.0 0.00 0.00 0.00 89 1016.9
20260903073005 74 173 0.0 0.0 0.00 0.00 0.00 89 1016.9
20260903072505 74 173 0.0 0.0 0.00 0.00 0.00 89 1016.9
20260903072005 74 173 0.0 0.0 0.00 0.00 0.00 89 1016.9
20260903071504 75 173 0.0 0.0 0.00 0.00 0.00 89 1016.9
20260903071005 75 173 0.0 0.0 0.00 0.00 0.00 89 1016.9
20260903070505 75 173 0.0 0.0 0.00 0.00 0.00 89 1016.9
20260903070006 75 173 0.0 0.0 0.00 0.00 0.00 89 1016.9
20260903065505 75 173 0.0 0.0 0.00 0.00 0.00 89 1016.9
20260903065005 75 173 0.0 0.0 0.00 0.00 0.00 89 1016.8
20260903064505 75 173 0.0 0.0 0.00 0.00 0.00 89 1016.8
20260903064006 75 173 0.0 0.9 0.00 0.00 0.00 88 1016.8
20260903063505 75 173 0.0 0.0 0.00 0.00 0.00 88 1016.8
20260903063005 75 173 0.0 0.0 0.00 0.00 0.00 88 1016.8
20260903062504 75 173 0.0 0.0 0.00 0.00 0.00 88 1016.8
20260903062006 75 173 0.0 0.0 0.00 0.00 0.00 88 1016.9
20260903061505 76 173 0.0 0.0 0.00 0.00 0.00 88 1017.0
20260903061005 76 173 0.0 0.0 0.00 0.00 0.00 88 1017.0
20260903060505 76 173 0.0 0.0 0.00 0.00 0.00 88 1017.0
20260903060005 76 173 0.0 0.0 0.00 0.00 0.00 88 1016.9
20260903055505 76 173 0.0 0.0 0.00 0.00 0.00 88 1016.9
20260903054505 76 173 0.0 0.0 0.00 0.00 0.00 88 1016.9
20260903054005 76 173 0.0 0.0 0.00 0.00 0.00 88 1017.1
20260903053505 76 173 0.0 0.0 0.00 0.00 0.00 88 1017.1
20260903053005 76 173 0.0 0.0 0.00 0.00 0.00 88 1017.2
20260903052505 76 173 0.0 0.0 0.00 0.00 0.00 88 1017.2
20260903052005 76 173 0.0 0.0 0.00 0.00 0.00 88 1017.2
20260903051505 77 173 0.0 0.0 0.00 0.00 0.00 88 1017.3
20260903050505 77 173 0.0 0.0 0.00 0.00 0.00 88 1017.3
20260903050005 77 173 0.0 0.0 0.00 0.00 0.00 87 1017.3
20260903045505 77 173 0.0 0.0 0.00 0.00 0.00 87 1017.3
20260903045005 77 173 0.0 0.0 0.00 0.00 0.00 87 1017.3
20260903044504 77 173 0.0 0.0 0.00 0.00 0.00 87 1017.3
20260903044005 77 173 0.0 0.0 0.00 0.00 0.00 87 1017.3
20260903043505 77 173 0.0 0.0 0.00 0.00 0.00 87 1017.3
20260903043005 78 173 0.0 0.9 0.00 0.00 0.00 87 1017.3
20260903041505 78 173 0.0 0.0 0.00 0.00 0.00 87 1017.3
20260903041005 78 173 0.0 0.0 0.00 0.00 0.00 86 1017.4
20260903040505 78 173 0.0 0.0 0.00 0.00 0.00 86 1017.4
20260903040004 78 173 0.0 0.0 0.00 0.00 0.00 86 1017.3
20260903035505 78 173 0.0 0.0 0.00 0.00 0.00 86 1017.3
20260903035005 78 173 0.0 0.0 0.00 0.00 0.00 86 1017.3
20260903034504 78 173 0.0 0.0 0.00 0.00 0.00 86 1017.3
20260903033005 79 173 0.0 0.0 0.00 0.00 0.00 86 1017.3
20260903032506 79 173 0.0 0.9 0.00 0.00 0.00 85 1017.3
20260903032004 79 173 0.9 2.6 0.00 0.00 0.00 85 1017.3
20260903031506 79 224 0.0 0.0 0.00 0.00 0.00 85 1017.3
20260903031006 79 224 0.0 0.0 0.00 0.00 0.00 85 1017.4
20260903030506 79 224 0.0 0.0 0.00 0.00 0.00 84 1017.4
20260903025504 80 224 0.0 0.0 0.00 0.00 0.00 84 1017.4
20260903025005 80 224 0.0 0.0 0.00 0.00 0.00 84 1017.4
20260903024505 80 224 0.0 0.0 0.00 0.00 0.00 84 1017.4
20260903024005 80 224 0.0 0.0 0.00 0.00 0.00 84 1017.4
20260903023505 81 224 0.0 1.7 0.00 0.00 0.00 84 1017.4
20260903023004 81 224 0.9 1.7 0.00 0.00 0.00 83 1017.4
20260903022505 81 224 0.0 1.7 0.00 0.00 0.00 83 1017.4
20260903022005 81 110 0.0 1.7 0.00 0.00 0.00 82 1017.3
20260903021505 81 107 0.0 0.0 0.00 0.00 0.00 82 1017.3
20260903021006 82 107 0.0 0.0 0.00 0.00 0.00 82 1017.3
20260903020505 82 107 0.0 0.0 0.00 0.00 0.00 82 1017.3
20260903020004 82 107 0.0 0.0 0.00 0.00 0.00 81 1017.3
20260903015505 82 107 0.0 0.0 0.00 0.00 0.00 81 1017.3
20260903015005 82 107 0.0 0.0 0.00 0.00 0.00 81 1016.9
20260903014505 83 107 0.0 0.9 0.00 0.00 0.00 81 1016.9
20260903014005 83 107 0.0 0.0 0.00 0.00 0.00 80 1016.9
20260903013505 83 107 0.0 0.0 0.00 0.00 0.00 80 1016.9
20260903013004 83 107 0.0 0.0 0.00 0.00 0.00 80 1016.8
20260903012005 84 107 0.0 0.0 0.00 0.00 0.00 79 1016.6
20260903011506 84 107 0.0 0.0 0.00 0.00 0.00 78 1016.6
20260903011006 85 107 0.0 0.0 0.00 0.00 0.00 78 1016.6
20260903010504 85 107 0.0 0.0 0.00 0.00 0.00 77 1016.6
20260903005505 86 107 0.0 0.0 0.00 0.00 0.00 76 1016.4
20260903004505 86 107 0.0 0.0 0.00 0.00 0.00 75 1016.4
20260903004005 87 107 0.0 0.0 0.00 0.00 0.00 74 1016.3
20260903003505 87 107 0.0 0.0 0.00 0.00 0.00 74 1016.3
20260903003006 87 107 0.0 0.0 0.00 0.00 0.00 73 1016.3
20260903002505 88 107 0.0 0.0 0.00 0.00 0.00 73 1016.3
20260903002006 88 107 0.0 0.9 0.00 0.00 0.00 72 1016.3
20260903001505 89 107 0.0 0.0 0.00 0.00 0.00 72 1016.3
20260903001005 89 107 0.0 0.0 0.00 0.00 0.00 72 1016.3
20260903000505 90 107 0.0 0.0 0.00 0.00 0.00 71 1016.3
20260903000005 90 107 0.0 0.0 0.00 0.00 0.00 70 1016.2
20260902235504 91 107 0.0 0.0 0.00 0.00 0.00 69 1016.2
20260902235005 91 107 0.0 0.0 0.00 0.00 0.00 68 1016.3
20260902234506 92 107 0.0 0.0 0.00 0.00 0.00 67 1016.3
20260902234005 92 107 0.0 0.0 0.00 0.00 0.00 66 1016.3
20260902233506 92 107 0.0 0.0 0.00 0.00 0.00 65 1016.3
20260902233004 93 107 0.0 0.9 0.00 0.00 0.00 64 1016.3
20260902232505 93 107 0.0 0.0 0.00 0.00 0.00 62 1016.3
20260902232006 93 107 0.0 0.0 0.00 0.00 0.00 57 1016.3
20260902231505 93 107 0.0 0.0 0.00 0.00 0.00 57 1016.3
20260902231005 93 107 0.0 0.0 0.00 0.00 0.00 58 1016.3
20260902230506 93 107 0.0 0.0 0.00 0.00 0.00 55 1016.3
20260902225505 94 107 0.0 1.7 0.00 0.00 0.00 52 1016.4
20260902225005 94 107 0.9 2.6 0.00 0.00 0.00 52 1016.3
20260902224006 94 106 0.9 2.6 0.00 0.00 0.00 51 1016.3
20260902223505 94 101 0.0 0.9 0.00 0.00 0.00 51 1016.3
20260902223006 94 101 0.0 2.6 0.00 0.00 0.00 51 1016.3
20260902222504 94 139 0.0 0.9 0.00 0.00 0.00 50 1016.3
20260902222005 95 139 0.0 1.7 0.00 0.00 0.00 50 1016.3
20260902221505 95 139 0.0 0.9 0.00 0.00 0.00 50 1016.3
20260902220505 95 139 0.9 1.7 0.00 0.00 0.00 49 1016.3
20260902220004 95 147 0.0 2.6 0.00 0.00 0.00 49 1016.5
20260902214504 95 105 0.9 1.7 0.00 0.00 0.00 49 1016.6
20260902213005 95 21 0.9 2.6 0.00 0.00 0.00 48 1016.8
20260902212005 95 123 0.9 2.6 0.00 0.00 0.00 48 1016.8
20260902211006 96 93 0.9 4.3 0.00 0.00 0.00 48 1016.8
20260902210505 95 84 0.9 2.6 0.00 0.00 0.00 49 1016.8
20260902205505 95 196 1.7 4.3 0.00 0.00 0.00 48 1016.9
20260902205006 95 129 0.0 0.9 0.00 0.00 0.00 49 1016.9
20260902204505 95 129 0.9 2.6 0.00 0.00 0.00 48 1016.9
20260902204005 95 99 0.9 2.6 0.00 0.00 0.00 50 1016.9
20260902203505 95 119 0.9 1.7 0.00 0.00 0.00 49 1016.9
20260902203005 95 90 0.9 1.7 0.00 0.00 0.00 48 1017.1
20260902202505 95 3 0.9 2.6 0.00 0.00 0.00 48 1017.1
20260902202005 95 67 0.9 1.7 0.00 0.00 0.00 48 1017.1
20260902201504 96 106 1.7 4.3 0.00 0.00 0.00 47 1017.4
20260902201004 95 108 2.6 6.1 0.00 0.00 0.00 48 1017.4
20260902200505 95 342 0.9 1.7 0.00 0.00 0.00 46 1017.4
20260902200005 96 149 0.9 1.7 0.00 0.00 0.00 47 1017.4
20260902195504 96 315 0.9 2.6 0.00 0.00 0.00 45 1017.4
20260902195005 96 44 0.0 2.6 0.00 0.00 0.00 46 1017.4
20260902194006 94 12 1.7 2.6 0.00 0.00 0.00 46 1017.5
20260902193505 95 350 0.9 2.6 0.00 0.00 0.00 45 1017.5
20260902193006 96 1 0.9 2.6 0.00 0.00 0.00 45 1017.9
20260902192005 95 71 0.9 2.6 0.00 0.00 0.00 48 1017.9
20260902191506 95 8 0.9 2.6 0.00 0.00 0.00 48 1017.9
20260902191005 95 112 0.9 2.6 0.00 0.00 0.00 46 1018.0
20260902190507 95 100 0.9 2.6 0.00 0.00 0.00 47 1018.0
20260902190005 95 152 0.9 2.6 0.00 0.00 0.00 47 1018.0
20260902185504 95 341 0.9 2.6 0.00 0.00 0.00 47 1018.0
20260902185006 95 15 1.7 2.6 0.00 0.00 0.00 47 1018.5
20260902184505 94 15 0.9 2.6 0.00 0.00 0.00 49 1018.5
20260902184006 95 72 1.7 2.6 0.00 0.00 0.00 47 1018.5
20260902183505 96 64 0.9 2.6 0.00 0.00 0.00 49 1018.5
20260902183005 94 13 0.9 2.6 0.00 0.00 0.00 50 1018.4
20260902182504 94 352 0.9 2.6 0.00 0.00 0.00 49 1018.4
20260902182005 94 355 1.7 2.6 0.00 0.00 0.00 48 1018.5
20260902181505 94 354 0.9 2.6 0.00 0.00 0.00 48 1018.5
20260902180007 94 229 0.9 2.6 0.00 0.00 0.00 47 1018.8
20260902175505 93 24 0.9 2.6 0.00 0.00 0.00 49 1018.8
20260902175005 93 51 0.9 2.6 0.00 0.00 0.00 51 1018.8
20260902174506 94 14 0.9 1.7 0.00 0.00 0.00 50 1018.8
20260902174005 93 348 0.9 1.7 0.00 0.00 0.00 54 1018.9
20260902172505 93 289 0.9 2.6 0.00 0.00 0.00 52 1019.0
20260902172005 94 38 0.9 2.6 0.00 0.00 0.00 52 1019.2
20260902171505 94 336 1.7 2.6 0.00 0.00 0.00 52 1019.2
20260902171005 94 54 0.9 2.6 0.00 0.00 0.00 53 1019.3
20260902170505 93 14 2.6 5.2 0.00 0.00 0.00 50 1019.3
20260902170005 94 59 0.0 2.6 0.00 0.00 0.00 52 1019.5
20260902165505 94 4 1.7 2.6 0.00 0.00 0.00 55 1019.5
20260902164505 93 302 1.7 2.6 0.00 0.00 0.00 51 1019.5
20260902164005 94 353 0.9 4.3 0.00 0.00 0.00 53 1019.5
20260902163505 94 290 0.9 4.3 0.00 0.00 0.00 54 1019.5
20260902163005 92 29 0.9 2.6 0.00 0.00 0.00 56 1020.0
20260902162505 92 349 0.9 2.6 0.00 0.00 0.00 56 1020.0
20260902162005 93 286 1.7 2.6 0.00 0.00 0.00 53 1020.0
20260902161506 93 234 0.9 2.6 0.00 0.00 0.00 55 1020.0
20260902161005 93 310 1.7 4.3 0.00 0.00 0.00 54 1020.0
20260902160505 92 240 1.7 4.3 0.00 0.00 0.00 53 1020.0
20260902155504 92 280 0.9 2.6 0.00 0.00 0.00 56 1020.0
20260902154005 90 278 0.9 2.6 0.00 0.00 0.00 61 1020.0
20260902153006 91 287 1.7 4.3 0.00 0.00 0.00 59 1020.0
20260902152504 90 267 0.9 2.6 0.00 0.00 0.00 60 1020.0
20260902152005 89 260 0.9 4.3 0.00 0.00 0.00 59 1020.0
20260902151505 89 220 0.9 5.2 0.00 0.00 0.00 61 1020.0
20260902151006 89 272 1.7 6.1 0.00 0.00 0.00 61 1020.0
20260902150504 89 326 1.7 4.3 0.00 0.00 0.00 61 1020.0
20260902150005 89 4 0.9 2.6 0.00 0.00 0.00 64 1020.0
20260902145505 88 5 0.9 2.6 0.00 0.00 0.00 65 1020.0
20260902145006 87 333 0.9 5.2 0.00 0.00 0.00 66 1019.6
20260902144505 87 285 3.5 6.1 0.00 0.00 0.00 64 1019.6
20260902144005 87 276 2.6 6.1 0.00 0.00 0.00 65 1019.6
20260902143505 87 323 2.6 7.8 0.00 0.00 0.00 64 1019.6
20260902143005 88 280 1.7 7.8 0.00 0.00 0.00 66 1019.6
20260902142505 87 298 0.9 4.3 0.00 0.00 0.00 68 1019.6
20260902142005 87 242 1.7 2.6 0.00 0.00 0.00 68 1019.6
20260902141505 85 239 1.7 5.2 0.00 0.00 0.00 69 1019.6
20260902141005 86 258 1.7 4.3 0.00 0.00 0.00 70 1019.6
20260902140505 85 255 2.6 4.3 0.00 0.00 0.00 70 1019.6
20260902135504 83 232 1.7 2.6 0.00 0.00 0.00 76 1019.6
20260902135005 82 272 0.9 2.6 0.00 0.00 0.00 80 1019.6
20260902134005 78 273 0.9 2.6 0.00 0.00 0.00 88 1019.6
20260902133005 76 268 0.9 1.7 0.00 0.00 0.00 89 1019.6
20260902132505 75 268 0.9 2.6 0.00 0.00 0.00 89 1019.6
20260902132006 75 268 0.9 1.7 0.00 0.00 0.00 89 1019.6
20260902131504 75 268 0.9 1.7 0.00 0.00 0.00 89 1019.6
20260902131006 75 355 0.0 0.9 0.00 0.00 0.00 89 1019.6
20260902130505 75 355 0.0 0.9 0.00 0.00 0.00 89 1019.6
20260902130005 74 355 0.0 0.9 0.00 0.00 0.00 89 1019.6
20260902125505 74 355 0.0 0.9 0.00 0.00 0.00 89 1019.6
20260902125005 73 355 0.0 0.9 0.00 0.00 0.00 89 1019.6
20260902124506 72 355 0.0 0.9 0.00 0.00 0.00 89 1019.6
20260902124006 72 355 0.0 1.7 0.00 0.00 0.00 89 1019.6
20260902123505 72 355 0.9 1.7 0.00 0.00 0.00 89 1019.6
20260902123005 72 355 0.0 0.9 0.00 0.00 0.00 89 1019.6
20260902122506 71 355 0.0 0.9 0.00 0.00 0.00 89 1019.6
20260902122005 71 355 0.0 0.9 0.00 0.00 0.00 89 1019.3
20260902120505 71 355 0.0 0.9 0.00 0.00 0.00 89 1019.2
20260902120005 71 355 0.0 0.9 0.00 0.00 0.00 90 1019.1
20260902115506 71 355 0.0 0.9 0.00 0.00 0.00 90 1019.1
20260902115005 71 355 0.0 0.0 0.00 0.00 0.00 90 1019.1
20260902114505 71 355 0.0 0.9 0.00 0.00 0.00 90 1019.0
20260902114005 71 355 0.0 1.7 0.00 0.00 0.00 90 1019.0
20260902113505 71 355 0.0 0.9 0.00 0.00 0.00 90 1019.0
20260902113005 71 355 0.0 0.0 0.00 0.00 0.00 90 1019.0
20260902112505 71 355 0.0 0.0 0.00 0.00 0.00 89 1019.0
20260902112005 71 355 0.0 0.0 0.00 0.00 0.00 89 1018.9
20260902111505 71 355 0.0 0.9 0.00 0.00 0.00 89 1018.9
20260902111006 71 355 0.0 0.0 0.00 0.00 0.00 89 1018.9
20260902110506 71 355 0.0 0.0 0.00 0.00 0.00 89 1018.9
20260902110007 71 355 0.9 1.7 0.00 0.00 0.00 89 1018.5
20260902104506 71 355 0.0 0.9 0.00 0.00 0.00 89 1018.5
20260902104005 71 355 0.0 1.7 0.00 0.00 0.00 89 1018.5
20260902103505 71 355 0.9 1.7 0.00 0.00 0.00 89 1018.5
20260902102505 71 355 0.0 0.9 0.00 0.00 0.00 90 1018.5
20260902101505 71 355 0.0 1.7 0.00 0.00 0.00 90 1018.5
20260902101006 71 355 0.0 0.9 0.00 0.00 0.00 90 1018.4
20260902100504 71 355 0.0 0.0 0.00 0.00 0.00 90 1018.4
20260902100004 71 355 0.0 0.0 0.00 0.00 0.00 90 1018.4
20260902095505 71 355 0.0 0.0 0.00 0.00 0.00 90 1018.4
20260902095006 71 355 0.0 0.0 0.00 0.00 0.00 90 1018.4
20260902094504 71 355 0.0 0.0 0.00 0.00 0.00 90 1018.4
20260902094005 71 355 0.0 0.0 0.00 0.00 0.00 89 1018.4
20260902093505 71 355 0.0 0.0 0.00 0.00 0.00 89 1018.4
20260902093006 72 355 0.0 0.0 0.00 0.00 0.00 89 1017.8
20260902092005 72 355 0.0 0.0 0.00 0.00 0.00 89 1017.8
20260902091006 72 355 0.0 0.0 0.00 0.00 0.00 89 1017.8
20260902090504 72 355 0.0 0.0 0.00 0.00 0.00 89 1017.8
20260902090005 72 355 0.0 0.0 0.00 0.00 0.00 89 1017.8
20260902085505 72 355 0.0 0.0 0.00 0.00 0.00 89 1017.8
20260902084505 72 355 0.0 0.0 0.00 0.00 0.00 89 1017.8
20260902083505 72 355 0.0 0.0 0.00 0.00 0.00 89 1017.8
20260902083005 72 355 0.0 0.0 0.00 0.00 0.00 89 1017.8
20260902082504 72 355 0.0 0.0 0.00 0.00 0.00 89 1017.8
20260902082005 72 355 0.0 0.0 0.00 0.00 0.00 89 1017.9
20260902081504 72 355 0.0 0.9 0.00 0.00 0.00 89 1017.9
20260902081005 72 355 0.0 0.0 0.00 0.00 0.00 89 1017.8
20260902080504 72 355 0.0 0.9 0.00 0.00 0.00 89 1017.8
20260902080005 73 355 0.0 0.0 0.00 0.00 0.00 89 1017.7
20260902075505 73 355 0.0 0.0 0.00 0.00 0.00 89 1017.7
20260902075005 73 355 0.0 0.9 0.00 0.00 0.00 89 1017.7